EW5404 Weather Reports


time (UTC)temp
C
wind
direction
speed
KPH
gust
KPH
rain 1hr
cm
rain 24hr
cm
rain mn
cm
humidity
%
barometer
mb
20260906060008 23 317 0.0 0.0 0.00 0.00 0.00 93 1012.2
20260906054505 23 317 0.0 0.0 0.00 0.00 0.00 93 1012.5
20260906053003 23 317 0.0 0.0 0.00 0.00 0.00 92 1012.5
20260906051502 23 317 0.0 0.0 0.00 0.00 0.00 92 1012.7
20260906050114 23 317 0.0 0.0 0.00 0.00 0.00 92 1013.0
20260906044558 23 317 0.0 0.0 0.00 0.00 0.00 91 1012.9
20260906043102 24 317 0.0 0.0 0.00 0.00 0.00 90 1012.8
20260906041555 24 317 0.0 0.0 0.00 0.00 0.00 90 1012.7
20260906040053 24 317 0.0 0.0 0.00 0.00 0.00 89 1012.8
20260906034558 24 317 0.0 0.0 0.00 0.00 0.00 89 1013.0
20260906033052 24 317 0.0 0.0 0.00 0.00 0.00 89 1012.9
20260906031616 24 317 0.0 0.0 0.00 0.00 0.00 89 1013.0
20260906030052 24 317 0.0 0.0 0.00 0.00 0.00 88 1012.8
20260906024556 25 317 0.0 0.0 0.00 0.00 0.00 87 1013.2
20260906023106 25 317 0.0 1.6 0.00 0.00 0.00 87 1013.2
20260906021548 25 317 0.0 0.0 0.00 0.00 0.00 87 1012.9
20260906020057 25 317 0.0 0.0 0.00 0.00 0.00 86 1012.7
20260906014548 25 317 0.0 0.0 0.00 0.00 0.00 86 1012.2
20260906013047 25 317 0.0 0.0 0.00 0.00 0.00 85 1012.1
20260906011550 25 317 0.0 0.0 0.00 0.00 0.00 85 1012.1
20260906010046 25 317 0.0 0.0 0.00 0.00 0.00 83 1012.1
20260906004551 25 317 0.0 0.0 0.00 0.00 0.00 82 1011.9
20260906003050 26 317 0.0 0.0 0.00 0.00 0.00 81 1011.8
20260906001546 26 317 0.0 0.0 0.00 0.00 0.00 81 1012.0
20260906000045 26 317 0.0 0.0 0.00 0.00 0.00 81 1011.7
20260905234544 26 317 0.0 0.0 0.00 0.00 0.00 80 1011.2
20260905233048 26 317 0.0 0.0 0.00 0.00 0.00 78 1011.0
20260905231541 27 317 0.0 0.0 0.00 0.00 0.00 78 1011.1
20260905230041 27 317 0.0 0.0 0.00 0.00 0.00 76 1011.5
20260905224540 27 317 0.0 0.0 0.00 0.00 0.00 76 1011.4
20260905223039 27 317 0.0 0.0 0.00 0.00 0.00 75 1011.5
20260905221551 27 317 0.0 0.0 0.00 0.00 0.00 77 1011.3
20260905220040 27 317 0.0 0.0 0.00 0.00 0.00 77 1011.5
20260905214536 27 317 0.0 0.0 0.00 0.00 0.00 76 1011.8
20260905213035 27 317 0.0 0.0 0.00 0.00 0.00 75 1011.8
20260905211535 27 317 0.0 0.0 0.00 0.00 0.00 74 1012.0
20260905210034 26 317 0.0 3.2 0.00 0.00 0.00 75 1012.1
20260905204533 26 329 0.0 8.0 0.00 0.00 0.00 76 1012.1
20260905203034 26 267 3.2 11.3 0.00 0.00 0.00 74 1011.8
20260905201531 27 288 3.2 8.0 0.00 0.00 0.00 74 1012.2
20260905200032 27 327 1.6 8.0 0.00 0.00 0.00 72 1012.3
20260905194530 27 271 0.0 11.3 0.00 0.00 0.00 69 1012.8
20260905193037 27 202 3.2 19.3 0.00 0.00 0.00 67 1012.7
20260905191530 27 302 3.2 14.5 0.00 0.00 0.00 73 1013.2
20260905190039 28 311 9.7 20.9 0.00 0.00 0.00 72 1012.7
20260905184531 31 290 8.0 20.9 0.00 0.00 0.00 62 1012.4
20260905183027 33 292 0.0 4.8 0.00 0.00 0.00 56 1011.9
20260905181526 34 317 3.2 12.9 0.00 0.00 0.00 54 1012.3
20260905180030 34 277 0.0 6.4 0.00 0.00 0.00 51 1012.2
20260905174522 35 48 0.0 8.0 0.00 0.00 0.00 54 1012.3
20260905173020 35 223 3.2 12.9 0.00 0.00 0.00 54 1012.7
20260905171521 34 36 0.0 9.7 0.00 0.00 0.00 55 1012.6
20260905170015 33 18 4.8 14.5 0.00 0.00 0.00 56 1013.0
20260905164511 34 151 0.0 4.8 0.00 0.00 0.00 57 1013.2
20260905163007 33 296 0.0 11.3 0.00 0.00 0.00 59 1013.4
20260905161504 33 21 0.0 9.7 0.00 0.00 0.00 60 1013.5
20260905160001 33 311 0.0 4.8 0.00 0.00 0.00 62 1013.7
20260905154603 32 330 0.0 8.0 0.00 0.00 0.00 64 1013.8
20260905153054 32 327 0.0 3.2 0.00 0.00 0.00 67 1014.0
20260905151552 31 327 0.0 6.4 0.00 0.00 0.00 70 1014.1
20260905150048 31 327 0.0 0.0 0.00 0.00 0.00 72 1014.1
20260905144545 30 327 0.0 0.0 0.00 0.00 0.00 73 1014.2
20260905143041 29 327 0.0 8.0 0.00 0.00 0.00 75 1014.2
20260905141538 28 328 0.0 4.8 0.00 0.00 0.00 77 1014.3
20260905140035 28 325 0.0 1.6 0.00 0.00 0.00 79 1014.4
20260905134532 27 325 0.0 4.8 0.00 0.00 0.00 81 1014.6
20260905133028 27 321 0.0 1.6 0.00 0.00 0.00 83 1014.6
20260905131524 26 321 0.0 3.2 0.00 0.00 0.00 86 1014.6
20260905130022 25 321 0.0 0.0 0.00 0.00 0.00 89 1014.7
20260905124521 25 322 0.0 6.4 0.00 0.00 0.00 90 1014.5
20260905123020 24 5 0.0 1.6 0.00 0.00 0.00 92 1014.6
20260905121519 23 85 0.0 0.0 0.00 0.00 0.00 93 1014.4
20260905120034 23 85 0.0 0.0 0.00 0.00 0.00 94 1014.4
20260905114518 23 85 0.0 0.0 0.00 0.00 0.00 94 1014.3
20260905113016 23 85 0.0 0.0 0.00 0.00 0.00 94 1014.1
20260905111525 23 85 0.0 0.0 0.00 0.00 0.00 94 1014.0
20260905110020 23 85 0.0 0.0 0.00 0.00 0.00 94 1013.7
20260905104514 23 85 0.0 0.0 0.00 0.00 0.00 93 1013.6
20260905103022 23 85 0.0 0.0 0.00 0.00 0.00 93 1013.5
20260905101512 23 85 0.0 0.0 0.00 0.00 0.00 93 1013.3
20260905100011 23 85 0.0 0.0 0.00 0.00 0.00 93 1013.2
20260905094510 23 85 0.0 0.0 0.00 0.00 0.00 93 1013.2
20260905093011 23 85 0.0 0.0 0.00 0.00 0.00 92 1013.2
20260905091509 23 85 0.0 0.0 0.00 0.00 0.00 93 1013.3
20260905090008 23 85 0.0 0.0 0.00 0.00 0.00 93 1013.3
20260905084505 24 85 0.0 0.0 0.00 0.00 0.00 93 1013.4
20260905083007 24 85 0.0 0.0 0.00 0.00 0.00 92 1013.6
20260905081601 24 85 0.0 0.0 0.00 0.00 0.00 92 1013.6
20260905080100 24 85 0.0 0.0 0.00 0.00 0.00 91 1013.6
20260905074559 24 85 0.0 0.0 0.00 0.00 0.00 91 1013.9
20260905073058 24 85 0.0 0.0 0.00 0.00 0.00 91 1013.9
20260905071555 25 85 0.0 0.0 0.00 0.00 0.00 90 1014.0
20260905070058 25 85 0.0 0.0 0.00 0.00 0.00 91 1014.0
20260905064610 25 85 0.0 0.0 0.00 0.00 0.00 90 1014.1
20260905063050 25 85 0.0 0.0 0.00 0.00 0.00 89 1014.1
20260905061548 25 85 0.0 0.0 0.00 0.00 0.00 89 1014.3